Flag for Canada Weather past 2 weeks in Annapolis County, Nova Scotia, Canada

Now
49 °F

Cool.


Feels Like: 49 °F
Forecast: 51 / 62 °F
Wind: 2 mph from South

Location: Kejimkujik 1

Current Time: Sep 17, 2014 at 7:36:12 AM

Latest Report: Sep 17, 2014 at 7:00 AM


Visibility: N/A

Pressure: 29.96 "Hg

Humidity: 96%

Dew point: 48 °F

Location of Annapolis CountyLocation

Historic Weather in Annapolis County — Graph

°F

Annapolis County temperature yesterday

Maximum temperature yesterday: 61 °F (at 5:00 PM)
Minimum temperature yesterday: 40 °F (at 4:00 AM)
Average temperature yesterday: 49 °F

Past Weeks' High & Low Weather Summary

 TemperatureHumidityPressure
High83 °F (Sep 5, 4:00 PM)100% (Sep 3, 12:00 PM)30.46 "Hg (Sep 3, 12:00 PM)
Low40 °F (Sep 16, 4:00 AM)27% (Sep 8, 5:00 PM)29.74 "Hg (Sep 3, 8:00 AM)
Average59 °F83%30.07 "Hg
* Reported Sep 2 6:00 AM — Sep 17 6:00 AM, Annapolis County, Weather by CustomWeather, © 2014

Note: Actual official high and low records may vary slightly from our data, if they occured in-between our weather recording intervals... More about our weather records

Advertising

Annapolis County weather history for previous 24 hours

 ConditionsComfort  
Time TempWeatherWind HumidityBarometerVisibility
6:00 AM
Sep 17
46 °FCool.2 mph95%29.96 "HgN/A
5:00 AM46 °FCool.1 mph93%29.95 "HgN/A
4:00 AM48 °FCool.2 mph92%29.95 "HgN/A
3:00 AM49 °FCool.1 mph91%29.97 "HgN/A
2:00 AM50 °FCool.1 mph87%29.97 "HgN/A
1:00 AM50 °FCool.2 mph88%29.98 "HgN/A
12:00 AM50 °FCool.3 mph87%29.98 "HgN/A
11:00 PM
Sep 16
50 °FCool.2 mph94%29.98 "HgN/A
10:00 PM51 °FCool.3 mph93%29.98 "HgN/A
9:00 PM51 °FCool.3 mph91%29.98 "HgN/A
8:00 PM54 °FCool.1 mph84%29.98 "HgN/A
7:00 PM56 °FCool.2 mph79%29.97 "HgN/A
6:00 PM59 °FCool.1 mph71%29.98 "HgN/A
5:00 PM61 °FCool.1 mph63%29.98 "HgN/A
4:00 PM59 °FCool.2 mph72%30.00 "HgN/A
3:00 PM60 °FRefreshingly cool.3 mph59%30.00 "HgN/A
2:00 PM60 °FCool.5 mph64%30.01 "HgN/A
1:00 PM58 °FCool.3 mph73%30.03 "HgN/A
12:00 PM55 °FCool.2 mph84%30.05 "HgN/A
11:00 AM52 °FCool.1 mph93%30.06 "HgN/A
10:00 AM49 °FCool.1 mph97%30.07 "HgN/A
9:00 AM44 °FQuite cool.No wind97%30.07 "HgN/A
8:00 AM40 °FQuite cool.1 mph97%30.08 "HgN/A
7:00 AM40 °FQuite cool.1 mph97%30.08 "HgN/A
Weather by CustomWeather, © 2014

See weather overviewHow to use our weather pages